Powrót do katalogu

STARLINK-11424

AktywnyŁącznośćVLEO
NORAD 61949·PAYLOAD·🇺🇸 United States

Wystrzelony Nov 14, 2024 z Vandenberg Space Force Base

Loading…

Następne Przeloty (najbliższe 24 godziny)

TLE

ŚwieżeSource: CelesTrak SupGP

Epoka: Sep 15, 2026, 03:05 UTC

1 61949C 24209L   26258.12895833  .00031404  00000+0  25865-3 0  2586
2 61949  53.1569 157.2822 0001177  84.1648 254.1263 15.69696522    19

Śledź STARLINK-11424 w czasie rzeczywistym z AllMySat

Download on the App Store